Weather in Enotaevka

Russia / Astrakhan Oblast     47°14′37″N   47°01′47″E
temp.,
°C
wind,
m/s
gust,
m/s
humid.,
%
clouds,
%
prec.,
mm/h
press.,
hPa
HPBL,
m
26 july, mon
mon2601:00+25ne410430 0.0 1018178
04:00+24ene48440 0.0 1018131
07:00+24ene36440 0.0 1019158
10:00+29e45310 0.0 1020807
13:00+31ene44270 0.0 10191968
16:00+32ene44260 0.0 10182364
19:00+30ne56290 0.0 10181129
22:00+26ne61238100 0.0 1019253
27 july, tue
tue2701:00+25ene7133520 0.0 1019316
04:00+23ene4839100 0.0 1019164
07:00+24ene363991 0.0 1019185
10:00+27e342890 0.0 10191152
13:00+29ene4525100 0.0 10181934
16:00+29nne2325100 0.0 10172064
19:00+28sse1130100 0.0 1017201
22:00+25ne3334100 0.0 101739
28 july, wed
wed2801:00+23nne4538100 0.0 101760
04:00+22n3339100 0.0 101735
07:00+23nne3441100 0.0 1018120
10:00+27nne3432100 0.0 1017838
13:00+29ne242948 0.0 10162242
16:00+30ne34265 0.0 10152485
19:00+30ne34265 0.0 10151456
22:00+25e113531 0.0 101511
29 july, thu
thu2901:00+24ese223426 0.0 101511
04:00+24sw223628 0.0 101511
07:00+25sw22364 0.0 101529
10:00+30sw22265 0.0 10151448
13:00+31se232368 0.0 10142670
16:00+33se342213 0.0 10132735
19:00+32sse23245 0.0 10122741
22:00+28s44284 0.0 101227
30 july, fri
fri3001:00+26ssw610303 0.0 1013163
04:00+25sw612340 0.0 1013228
07:00+25sw59375 0.0 1013244
10:00+31wsw44265 0.0 1013705
13:00+33sw23220 0.0 10132528
16:00+34sse22213 0.0 10112776
19:00+34se33220 0.0 10112030
22:00+29s610285 0.0 1012184